FW6754 Weather Reports


Display with metric or nautical units.
time (UTC)temp
F
wind
direction
speed
MPH
gust
MPH
rain 1hr
in
rain 24hr
in
rain mn
in
humidity
%
barometer
mb
20260504140912 66 0.0 0.0 0.00 0.00 0.00 10 1013.5
20260504140411 66 0.0 0.0 0.00 0.00 0.00 10 1013.6
20260504130412 64 0.0 0.0 0.00 0.00 0.00 10 1014.0
20260504110412 59 0.0 0.0 0.00 0.00 0.00 10 1014.9
20260504100413 62 0.0 0.0 0.00 0.00 0.00 10 1015.0
20260504081912 58 0.0 0.0 0.00 0.00 0.00 10 1015.2
20260504081411 58 0.0 0.0 0.00 0.00 0.00 10 1015.2
20260504080911 58 0.0 0.0 0.00 0.00 0.00 10 1015.3
20260504080412 58 0.0 0.0 0.00 0.00 0.00 10 1015.4
20260504070412 56 0.0 0.0 0.00 0.00 0.00 10 1015.2
20260504050411 53 0.0 0.0 0.00 0.00 0.00 10 1015.0
20260504045412 53 0.0 0.0 0.00 0.00 0.00 10 1015.0
20260504044912 53 0.0 0.0 0.00 0.00 0.00 10 1015.0
20260504044412 53 0.0 0.0 0.00 0.00 0.00 10 1015.0
20260504043412 53 0.0 0.0 0.00 0.00 0.00 10 1014.9
20260504042912 53 0.0 0.0 0.00 0.00 0.00 10 1015.1
20260504042412 53 0.0 0.0 0.00 0.00 0.00 10 1015.0
20260504041912 53 0.0 0.0 0.00 0.00 0.00 10 1015.0
20260504041412 53 0.0 0.0 0.00 0.00 0.00 10 1015.1
20260504040911 53 0.0 0.0 0.00 0.00 0.00 10 1015.0
20260504040412 53 0.0 0.0 0.00 0.00 0.00 10 1015.1
20260504035912 53 0.0 0.0 0.00 0.00 0.00 10 1015.1
20260504035412 53 0.0 0.0 0.00 0.00 0.00 10 1015.2
20260504034912 53 0.0 0.0 0.00 0.00 0.00 10 1015.3
20260504034412 54 0.0 0.0 0.00 0.00 0.00 10 1015.2
20260504033911 54 0.0 0.0 0.00 0.00 0.00 10 1015.2
20260504032911 54 0.0 0.0 0.00 0.00 0.00 10 1015.2
20260504032412 54 0.0 0.0 0.00 0.00 0.00 10 1015.2
20260504031913 54 0.0 0.0 0.00 0.00 0.00 10 1015.2
20260504031412 54 0.0 0.0 0.00 0.00 0.00 10 1015.1
20260504030412 54 0.0 0.0 0.00 0.00 0.00 10 1015.1
20260504025911 54 0.0 0.0 0.00 0.00 0.00 10 1015.2
20260504025411 54 0.0 0.0 0.00 0.00 0.00 10 1015.2
20260504024912 54 0.0 0.0 0.00 0.00 0.00 10 1015.2
20260504024411 54 0.0 0.0 0.00 0.00 0.00 10 1015.1
20260504023911 54 0.0 0.0 0.00 0.00 0.00 10 1015.2
20260504023411 54 0.0 0.0 0.00 0.00 0.00 10 1015.1
20260504022912 54 0.0 0.0 0.00 0.00 0.00 10 1015.0
20260504022411 54 0.0 0.0 0.00 0.00 0.00 10 1015.0
20260504021911 54 0.0 0.0 0.00 0.00 0.00 10 1015.0
20260504021411 54 0.0 0.0 0.00 0.00 0.00 10 1015.0
20260504020411 54 0.0 0.0 0.00 0.00 0.00 10 1015.0
20260504015912 54 0.0 0.0 0.00 0.00 0.00 10 1015.1
20260504015412 54 0.0 0.0 0.00 0.00 0.00 10 1015.0
20260504014912 54 0.0 0.0 0.00 0.00 0.00 10 1015.0
20260504014411 54 0.0 0.0 0.00 0.00 0.00 10 1014.8
20260504013911 54 0.0 0.0 0.00 0.00 0.00 10 1014.9
20260504013411 54 0.0 0.0 0.00 0.00 0.00 10 1014.8
20260504012412 54 0.0 0.0 0.00 0.00 0.00 10 1014.8
20260504011911 54 0.0 0.0 0.00 0.00 0.00 10 1014.8
20260504011412 55 0.0 0.0 0.00 0.00 0.00 10 1014.9
20260504010912 55 0.0 0.0 0.00 0.00 0.00 10 1014.9
20260504010412 55 0.0 0.0 0.00 0.00 0.00 10 1015.0
20260504005912 55 0.0 0.0 0.00 0.00 0.00 10 1015.2
20260504005412 55 0.0 0.0 0.00 0.00 0.00 10 1015.0
20260504004912 55 0.0 0.0 0.00 0.00 0.00 10 1015.0
20260504004412 55 0.0 0.0 0.00 0.00 0.00 10 1015.1
20260504003912 55 0.0 0.0 0.00 0.00 0.00 10 1015.1
20260504003411 55 0.0 0.0 0.00 0.00 0.00 10 1015.1
20260504002912 55 0.0 0.0 0.00 0.00 0.00 10 1015.2
20260504002413 55 0.0 0.0 0.00 0.00 0.00 10 1015.3
20260504001911 55 0.0 0.0 0.00 0.00 0.00 10 1015.4
20260504001411 56 0.0 0.0 0.00 0.00 0.00 10 1015.5
20260504000911 56 0.0 0.0 0.00 0.00 0.00 10 1015.5
20260504000412 56 0.0 0.0 0.00 0.00 0.00 10 1015.5
20260503235912 56 0.0 0.0 0.00 0.00 0.00 10 1015.5
20260503235411 56 0.0 0.0 0.00 0.00 0.00 10 1015.5
20260503234912 56 0.0 0.0 0.00 0.00 0.00 10 1015.6
20260503234412 56 0.0 0.0 0.00 0.00 0.00 10 1015.6
20260503233911 56 0.0 0.0 0.00 0.00 0.00 10 1015.6
20260503233411 56 0.0 0.0 0.00 0.00 0.00 10 1015.5
20260503232912 56 0.0 0.0 0.00 0.00 0.00 10 1015.5
20260503232412 56 0.0 0.0 0.00 0.00 0.00 10 1015.5
20260503231912 57 0.0 0.0 0.00 0.00 0.00 10 1015.5
20260503231412 57 0.0 0.0 0.00 0.00 0.00 10 1015.5
20260503230912 57 0.0 0.0 0.00 0.00 0.00 10 1015.5
20260503230412 56 0.0 0.0 0.00 0.00 0.00 10 1015.4
20260503225912 56 0.0 0.0 0.00 0.00 0.00 10 1015.3
20260503225411 56 0.0 0.0 0.00 0.00 0.00 10 1015.4
20260503224412 56 0.0 0.0 0.00 0.00 0.00 10 1015.4
20260503223911 56 0.0 0.0 0.00 0.00 0.00 10 1015.4
20260503222912 56 0.0 0.0 0.00 0.00 0.00 10 1015.4
20260503222413 56 0.0 0.0 0.00 0.00 0.00 10 1015.3
20260503221911 56 0.0 0.0 0.00 0.00 0.00 10 1015.4
20260503221411 56 0.0 0.0 0.00 0.00 0.00 10 1015.4
20260503220412 56 0.0 0.0 0.00 0.00 0.00 10 1015.5
20260503215911 56 0.0 0.0 0.00 0.00 0.00 10 1015.4
20260503214911 56 0.0 0.0 0.00 0.00 0.00 10 1015.5
20260503213412 56 0.0 0.0 0.00 0.00 0.00 10 1015.4
20260503212413 55 0.0 0.0 0.00 0.00 0.00 10 1015.4
20260503211912 55 0.0 0.0 0.00 0.00 0.00 10 1015.3
20260503211412 56 0.0 0.0 0.00 0.00 0.00 10 1015.2
20260503210913 56 0.0 0.0 0.00 0.00 0.00 10 1015.2
20260503210412 56 0.0 0.0 0.00 0.00 0.00 10 1015.3
20260503205912 56 0.0 0.0 0.00 0.00 0.00 10 1015.2
20260503205412 56 0.0 0.0 0.00 0.00 0.00 10 1015.2
20260503204913 56 0.0 0.0 0.00 0.00 0.00 10 1015.2
20260503204412 56 0.0 0.0 0.00 0.00 0.00 10 1015.1
20260503203912 56 0.0 0.0 0.00 0.00 0.00 10 1015.2
20260503203411 56 0.0 0.0 0.00 0.00 0.00 10 1015.2
20260503202411 56 0.0 0.0 0.00 0.00 0.00 10 1015.3
20260503201912 56 0.0 0.0 0.00 0.00 0.00 10 1015.3
20260503201412 56 0.0 0.0 0.00 0.00 0.00 10 1015.3
20260503200911 56 0.0 0.0 0.00 0.00 0.00 10 1015.2
20260503200412 56 0.0 0.0 0.00 0.00 0.00 10 1015.1
20260503194912 56 0.0 0.0 0.00 0.00 0.00 10 1014.9
20260503194412 56 0.0 0.0 0.00 0.00 0.00 10 1014.8
20260503193911 56 0.0 0.0 0.00 0.00 0.00 10 1014.7
20260503193412 56 0.0 0.0 0.00 0.00 0.00 10 1014.6
20260503192911 56 0.0 0.0 0.00 0.00 0.00 10 1014.4
20260503192411 56 0.0 0.0 0.00 0.00 0.00 10 1014.5
20260503191911 56 0.0 0.0 0.00 0.00 0.00 10 1014.4
20260503190912 56 0.0 0.0 0.00 0.00 0.00 10 1014.4
20260503190412 56 0.0 0.0 0.00 0.00 0.00 10 1014.3
20260503185913 57 0.0 0.0 0.00 0.00 0.00 10 1014.4
20260503185412 57 0.0 0.0 0.00 0.00 0.00 10 1014.3
20260503184912 57 0.0 0.0 0.00 0.00 0.00 10 1014.3
20260503183412 58 0.0 0.0 0.00 0.00 0.00 10 1014.1
20260503182912 59 0.0 0.0 0.00 0.00 0.00 10 1014.0
20260503182411 59 0.0 0.0 0.00 0.00 0.00 10 1013.8
20260503181411 60 0.0 0.0 0.00 0.00 0.00 10 1013.7
20260503180911 61 0.0 0.0 0.00 0.00 0.00 10 1013.8
20260503175912 62 0.0 0.0 0.00 0.00 0.00 10 1013.7
20260503175411 63 0.0 0.0 0.00 0.00 0.00 10 1013.6
20260503174413 65 0.0 0.0 0.00 0.00 0.00 10 1013.4
20260503173912 69 0.0 0.0 0.00 0.00 0.00 10 1013.1
20260503173412 75 0.0 0.0 0.00 0.00 0.00 10 1012.9
20260503172913 79 0.0 0.0 0.00 0.00 0.00 10 1013.0
20260503172411 76 0.0 0.0 0.00 0.00 0.00 10 1013.0
20260503171412 66 0.0 0.0 0.00 0.00 0.00 10 1013.3
20260503170911 64 0.0 0.0 0.00 0.00 0.00 10 1013.4
20260503170412 63 0.0 0.0 0.00 0.00 0.00 10 1013.4
20260503150911 67 0.0 0.0 0.00 0.00 0.00 10 1012.4